Onweer radar Meer informatie blitzortung!


Regen radar Meer informatie rain snow radar


Bezoek onze andere website:

Template documentation
and downloads

And another site



15 daagse weersverwachting Dublin (IE)

  • Overzicht
  • Per uur
  • 15 dagen
  • Extra
  • Vergelijk
  • Kaarten
  • Dagkaart
  • Meer »
  • Info
  • Statistieken
  • Directe link
    Temp 6h Neerslag Wind  
 04:58     21:55    Daglengte: 16:57 Vandaag
19:00
14°
 
5
 04:58     21:55    Daglengte: 16:57 Morgen
01:00
13°
 
4
07:00
12°
 
4
13:00
17°
 
6
19:00
17°
 
5
 04:58     21:56    Daglengte: 16:58 Dinsdag 18 Jun
01:00
13°
 
3
07:00
12°
 
3
13:00
17°
 
2
19:00
17°
 
2
 04:58     21:56    Daglengte: 16:58 Woensdag 19 Jun
01:00
13°
 
2
07:00
11°
 
3
13:00
17°
5.0 mm
3
Locatie info
Region: Dublin
Latitude: 53.3481°N
Longitude: -6.2483°E
17 masl
Postcode: 1
Temp/Neerslag /Baro Onweer/Dauwpunt
    Temp Baro 1h Neerslag Dauwpunt Wind UV Bewolking  
 04:58     21:55    Daglengte: 16:57 Vandaag
19:00
14°
1006.5 hPa
51%
12.2°
5
Windvlaag: 5.5 m/s
46%
20:00
15°
1006.4 hPa
69%
11.8°
6
Windvlaag: 4.9 m/s
39%
21:00
14°
1007.0 hPa
30%
10.8°
6
Windvlaag: 4.4 m/s
37%
22:00
14°
1007.8 hPa
69%
10.6°
4
Windvlaag: 2.1 m/s
33%
23:00
13°
1008.5 hPa
66%
10.4°
4
Windvlaag: 2.7 m/s
45%
 04:58     21:55    Daglengte: 16:57 Morgen
00:00
13°
1008.9 hPa
62%
10.0°
4
Windvlaag: 3.5 m/s
59%
01:00
13°
1009.2 hPa
19%
9.8°
4
Windvlaag: 3.5 m/s
74%
02:00
12°
1009.4 hPa
16%
9.4°
4
Windvlaag: 3.5 m/s
78%
03:00
12°
1009.5 hPa
14%
9.1°
4
Windvlaag: 3.8 m/s
42%
04:00
11°
1009.6 hPa
14%
8.9°
4
Windvlaag: 4 m/s
32%
05:00
11°
1009.6 hPa
14%
8.9°
4
Windvlaag: 4 m/s
28%
06:00
11°
1009.7 hPa
14%
8.9°
4
Windvlaag: 4.3 m/s
24%
07:00
12°
1009.9 hPa
14%
8.8°
4
Windvlaag: 4 m/s
16%
08:00
13°
1010.2 hPa
14%
9.0°
5
Windvlaag: 4.4 m/s
18%
09:00
15°
1010.2 hPa
14%
8.8°
5
Windvlaag: 4.3 m/s
31%
10:00
15°
1010.5 hPa
17%
8.6°
6
Windvlaag: 3.9 m/s
31%
11:00
16°
1010.4 hPa
22%
8.1°
6
Windvlaag: 3.9 m/s
34%
12:00
17°
1010.5 hPa
20%
8.0°
6
Windvlaag: 4.3 m/s
39%
13:00
17°
1010.4 hPa
57%
7.9°
6
Windvlaag: 4.2 m/s
38%
14:00
18°
1010.5 hPa
21%
7.8°
6
Windvlaag: 4 m/s
50%
15:00
18°
1010.5 hPa
62%
7.8°
6
Windvlaag: 3.5 m/s
43%
16:00
18°
1010.6 hPa
68%
8.1°
6
Windvlaag: 4.1 m/s
58%
17:00
18°
1010.5 hPa
29%
8.0°
6
Windvlaag: 3.5 m/s
65%
18:00
18°
1010.8 hPa
62%
8.0°
5
Windvlaag: 2.8 m/s
52%
19:00
17°
1011.0 hPa
64%
8.9°
5
Windvlaag: 3.1 m/s
50%
20:00
16°
1011.2 hPa
15%
9.5°
4
Windvlaag: 3.1 m/s
27%
21:00
16°
1011.5 hPa
20%
9.7°
3
Windvlaag: 2.3 m/s
32%
22:00
15°
1012.0 hPa
14%
9.7°
2
Windvlaag: 1.4 m/s
36%
23:00
14°
1012.4 hPa
14%
9.4°
3
Windvlaag: 1.2 m/s
47%
 04:58     21:56    Daglengte: 16:58 Dinsdag 18 Jun
00:00
13°
1012.4 hPa
15%
9.3°
3
Windvlaag: 1.5 m/s
29%
01:00
13°
1012.5 hPa
15%
9.3°
3
Windvlaag: 1.8 m/s
18%
02:00
12°
1012.6 hPa
14%
9.3°
3
Windvlaag: 1.8 m/s
17%
03:00
12°
1012.4 hPa
14%
9.3°
3
Windvlaag: 1.9 m/s
20%
04:00
12°
1012.3 hPa
14%
9.1°
3
Windvlaag: 1.9 m/s
15%
05:00
11°
1012.2 hPa
14%
8.8°
3
Windvlaag: 1.7 m/s
20%
06:00
11°
1012.4 hPa
14%
8.7°
3
Windvlaag: 1.8 m/s
27%
07:00
12°
1012.7 hPa
14%
9.0°
3
Windvlaag: 1.2 m/s
44%
08:00
13°
1012.9 hPa
14%
8.7°
4
Windvlaag: 0.8 m/s
54%
09:00
14°
1012.9 hPa
14%
8.4°
4
Windvlaag: 0.8 m/s
28%
10:00
15°
1012.9 hPa
14%
8.0°
3
Windvlaag: 1.2 m/s
26%
11:00
16°
1012.8 hPa
14%
7.5°
3
Windvlaag: 1.3 m/s
38%
12:00
16°
1012.5 hPa
15%
7.6°
2
Windvlaag: 1.2 m/s
24%
13:00
17°
1012.3 hPa
14%
7.8°
2
Windvlaag: 0.5 m/s
35%
14:00
17°
1012.0 hPa
14%
8.1°
2
Windvlaag: 0.3 m/s
25%
15:00
17°
1011.6 hPa
14%
8.6°
2
Windvlaag: 0.4 m/s
44%
16:00
18°
1011.1 hPa
21%
9.8°
2
Windvlaag: 0.6 m/s
78%
17:00
18°
1010.7 hPa
22%
9.7°
2
Windvlaag: 1.4 m/s
91%
18:00
17°
1010.3 hPa
21%
9.4°
2
Windvlaag: 1.3 m/s
81%
19:00
17°
1010.2 hPa
22%
9.4°
2
Windvlaag: 1.2 m/s
75%
20:00
16°
1010.1 hPa
29%
11.3°
1
Windvlaag: 1 m/s
78%
21:00
15°
1010.1 hPa
21%
11.1°
1
Windvlaag: 0.8 m/s
80%
22:00
15°
1010.4 hPa
22%
10.2°
2
Windvlaag: 1 m/s
94%
23:00
14°
1010.4 hPa
25%
9.4°
2
Windvlaag: 0.3 m/s
96%
 04:58     21:56    Daglengte: 16:58 Woensdag 19 Jun
00:00
14°
1010.3 hPa
27%
9.9°
2
Windvlaag: -0.2 m/s
97%
01:00
13°
1010.0 hPa
25%
10.2°
2
Windvlaag: -0 m/s
99%
02:00
13°
1009.6 hPa
21%
10.3°
3
Windvlaag: -0 m/s
97%
03:00
12°
1009.2 hPa
22%
10.2°
3
Windvlaag: -0.1 m/s
96%
04:00
12°
1009.0 hPa
22%
10.2°
3
Windvlaag: -0.1 m/s
90%
05:00
11°
1008.8 hPa
22%
10.0°
3
Windvlaag: -0.1 m/s
78%
06:00
11°
1008.8 hPa
22%
9.9°
3
Windvlaag: -0.3 m/s
74%
07:00
11°
1008.9 hPa
21%
9.7°
3
Windvlaag: -0 m/s
56%
08:00
12°
1008.8 hPa
21%
9.6°
3
Windvlaag: 0.4 m/s
47%
09:00
13°
1008.7 hPa
21%
9.6°
3
Windvlaag: 0.1 m/s
48%
10:00
14°
1008.5 hPa
67%
9.5°
3
Windvlaag: -0.8 m/s
49%
11:00
15°
1008.3 hPa
79%
9.2°
3
Windvlaag: -0.7 m/s
24%
12:00
16°
1008.1 hPa 5.0 mm
82%
8.7°
3
Windvlaag: -0.5 m/s
27%
13:00
17°
1007.9 hPa
27%
8.2°
3
Windvlaag: -0.4 m/s
48%
14:00
17°
1007.3 hPa
26%
8.7°
4
Windvlaag: 5.1 m/s
48%
15:00
17°
1007.2 hPa
77%
8.7°
4
Windvlaag: 5.4 m/s
67%
16:00
17°
1007.1 hPa 5.0 mm
95%
8.7°
4
Windvlaag: 5.9 m/s
43%
17:00
17°
1007.0 hPa 5.1 mm
99%
8.9°
5
Windvlaag: 6.8 m/s
51%
18:00
16°
1006.9 hPa 5.3 mm
100%
8.8°
5
Windvlaag: 8.6 m/s
58%
Temp/Neerslag /Baro Onweer/Dauwpunt
    Temp Baro Neerslag Dauwpunt Wind Bewolking  
 04:58     21:55    Daglengte: 16:57 Vandaag
19:00
14°
1006.5 hPa   12.2°
5
46%
22:00
14°
1007.8 hPa   10.6°
4
33%
 04:58     21:55    Daglengte: 16:57 Morgen
01:00
13°
1009.2 hPa   9.8°
4
74%
04:00
11°
1009.6 hPa   8.9°
4
32%
07:00
12°
1009.9 hPa   8.8°
4
16%
10:00
15°
1010.5 hPa   8.6°
6
31%
13:00
17°
1010.4 hPa   7.9°
6
38%
16:00
18°
1010.6 hPa   8.1°
6
58%
19:00
17°
1011.0 hPa   8.9°
5
50%
22:00
15°
1012.0 hPa   9.7°
2
36%
 04:58     21:56    Daglengte: 16:58 Dinsdag 18 Jun
01:00
13°
1012.5 hPa   9.3°
3
18%
04:00
12°
1012.3 hPa   9.1°
3
15%
07:00
12°
1012.7 hPa   9.0°
3
44%
10:00
15°
1012.9 hPa   8.0°
3
26%
13:00
17°
1012.3 hPa   7.8°
2
35%
16:00
18°
1011.1 hPa   9.8°
2
78%
19:00
17°
1010.2 hPa   9.4°
2
75%
22:00
15°
1010.4 hPa   10.2°
2
94%
 04:58     21:56    Daglengte: 16:58 Woensdag 19 Jun
01:00
13°
1010.0 hPa   10.2°
2
99%
04:00
12°
1009.0 hPa   10.2°
3
90%
07:00
11°
1008.9 hPa   9.7°
3
56%
10:00
14°
1008.5 hPa   9.5°
3
49%
13:00
17°
1007.9 hPa 5.0 mm 8.2°
3
48%
16:00
17°
1007.1 hPa 5.0 mm 8.7°
4
43%
19:00
16°
1006.8 hPa 15.7 mm 8.4°
5
45%
22:00
13°
1007.9 hPa 11.4 mm 8.6°
5
64%
 04:58     21:56    Daglengte: 16:58 Donderdag 20 Jun
01:00
11°
1008.1 hPa 11.4 mm 8.3°
5
67%
04:00
11°
1008.2 hPa 11.4 mm 8.1°
6
62%
07:00
11°
1008.3 hPa 11.4 mm 8.1°
7
57%
10:00
13°
1009.1 hPa 11.4 mm 7.5°
6
49%
13:00
15°
1009.9 hPa 11.7 mm 6.4°
5
40%
16:00
14°
1010.8 hPa 14.2 mm 7.2°
5
41%
19:00
14°
1011.7 hPa 15.4 mm 7.5°
4
42%
22:00
11°
1013.4 hPa 15.6 mm 7.0°
4
25%
 04:58     21:57    Daglengte: 16:59 Vrijdag 21 Jun
01:00
Voelt als: 7.2°
1015.1 hPa 15.6 mm 6.2°
3
7%
04:00
Voelt als: 6.9°
1016.2 hPa 15.6 mm 6.2°
4
12%
07:00
Voelt als: 6.8°
1017.3 hPa 15.6 mm 6.3°
4
17%
10:00
12°
1018.4 hPa 15.7 mm 6.5°
4
41%
13:00
15°
1019.3 hPa 16.4 mm 6.0°
4
64%
16:00
15°
1020.0 hPa 17.4 mm 6.6°
3
68%
19:00
15°
1020.6 hPa 17.8 mm 6.8°
2
72%
22:00
13°
1021.7 hPa 17.9 mm 7.4°
2
59%
 04:59     21:57    Daglengte: 16:58 Zaterdag 22 Jun
01:00
11°
1022.7 hPa 18.0 mm 7.3°
1
47%
04:00
11°
1022.8 hPa 18.0 mm 8.0°
1
39%
07:00
12°
1023.0 hPa 18.0 mm 8.7°
0
32%
10:00
14°
1023.2 hPa 18.1 mm 8.9°
2
52%
13:00
16°
1023.5 hPa 18.3 mm 8.7°
4
72%
16:00
16°
1023.2 hPa 18.4 mm 8.6°
4
44%
19:00
15°
1023.0 hPa 18.8 mm 8.3°
4
17%
22:00
13°
1023.3 hPa 18.9 mm 9.0°
3
37%
 04:59     21:57    Daglengte: 16:58 Zondag 23 Jun
01:00
11°
1023.5 hPa 18.9 mm 9.1°
2
57%
04:00
12°
1023.1 hPa 18.9 mm 10.3°
2
72%
07:00
13°
1022.7 hPa 18.9 mm 11.5°
2
87%
10:00
15°
1022.9 hPa 18.9 mm 11.8°
3
86%
13:00
17°
1022.9 hPa 19.0 mm 11.7°
4
86%
16:00
16°
1022.8 hPa   11.6°
3
89%
19:00
15°
1022.7 hPa 38.2 mm 11.5°
3
92%
 04:59     21:57    Daglengte: 16:58 Maandag 24 Jun
01:00
11°
1023.4 hPa 44.7 mm 10.2°
2
82%
07:00
13°
1023.6 hPa 53.4 mm 11.9°
3
17%
13:00
16°
1024.9 hPa 56.2 mm 10.2°
5
14%
19:00
16°
1025.5 hPa 57.4 mm 9.1°
4
1%
 05:00     21:57    Daglengte: 16:57 Dinsdag 25 Jun
01:00
11°
1027.2 hPa 59.0 mm 9.5°
2
0%
07:00
13°
1027.9 hPa 59.8 mm 11.0°
1
1%
13:00
19°
1028.8 hPa 62.1 mm 11.5°
3
19%
19:00
17°
1028.3 hPa 65.0 mm 11.1°
2
14%
 05:00     21:57    Daglengte: 16:57 Woensdag 26 Jun
01:00
12°
1029.3 hPa 65.3 mm 8.8°
2
18%
07:00
10°
1019.6 hPa 65.3 mm 7.7°
6
1%
13:00
15°
1025.1 hPa 0.1 mm 10.1°
3
35%
19:00
15°
1024.0 hPa 0.3 mm 11.3°
2
51%
 05:01     21:57    Daglengte: 16:56 Donderdag 27 Jun
01:00
11°
1023.6 hPa 0.2 mm 9.6°
2
52%
07:00
11°
1021.7 hPa 0.5 mm 9.6°
2
56%
13:00
15°
1020.3 hPa 1.2 mm 10.9°
2
64%
19:00
15°
1018.2 hPa 1.2 mm 11.8°
2
62%
 05:01     21:57    Daglengte: 16:56 Vrijdag 28 Jun
01:00
12°
1017.9 hPa 0.8 mm 10.4°
2
54%
07:00
12°
1016.9 hPa 0.7 mm 10.6°
2
52%
13:00
16°
1016.6 hPa 0.4 mm 11.8°
2
56%
19:00
16°
1015.5 hPa 0.8 mm 12.6°
2
60%
 05:02     21:56    Daglengte: 16:54 Zaterdag 29 Jun
01:00
12°
1015.6 hPa 0.7 mm 10.5°
2
51%
07:00
12°
1014.9 hPa 0.4 mm 10.4°
2
53%
13:00
16°
1014.4 hPa 0.4 mm 11.8°
2
55%
19:00
16°
1013.3 hPa 1.3 mm 12.0°
2
60%
 05:03     21:56    Daglengte: 16:53 Zondag 30 Jun
01:00
12°
1012.8 hPa 0.6 mm 10.4°
2
56%
07:00
12°
1011.7 hPa 0.6 mm 10.4°
2
55%
13:00
15°
1012.0 hPa 0.7 mm 11.4°
2
65%
19:00
15°
1011.9 hPa 1.5 mm 11.9°
2
57%
 05:03     21:56    Daglengte: 16:53 Maandag 01 Jul
01:00
11°
1012.9 hPa 0.5 mm 9.8°
3
45%
07:00
11°
1012.9 hPa 0.4 mm 9.4°
3
29%
13:00
15°
1013.4 hPa 0.6 mm 11.0°
3
47%
  CAPE Lifted Index Hail Supercell Tornado SRH 3km CL BTM PRES CL TOP PRES Swiss DWD icon SMHI TS
 04:58     21:55    Daglengte: 16:57 Vandaag
19:00 2 J/kg 1.2 K 0 % 0 % 0 % 0 m²/s² 0 0 2.88 80
20:00 307 J/kg -0.7 K 0 % 0 % 0 % 0 m²/s² 0 0 2.54 3
21:00 177 J/kg 0.5 K 0 % 0 % 0 % 0 m²/s² 0 0 3.32 2
22:00 128 J/kg 1.0 K 0 % 0 % 0 % 0 m²/s² 0 0 1.33 2
23:00 152 J/kg 1.4 K 0 % 0 % 0 % 0 m²/s² 0 0 2.96 2
 04:58     21:55    Daglengte: 16:57 Morgen
00:00 132 J/kg 1.9 K 0 % 0 % 0 % 0 m²/s² 0 0 2.92 2
01:00 110 J/kg 1.9 K 0 % 0 % 0 % 0 m²/s² 0 0 3.67 3
02:00 58 J/kg 2.8 K 0 % 0 % 0 % 0 m²/s² 0 0 5.29 3
03:00 10 J/kg 4.3 K 0 % 0 % 0 % 0 m²/s² 0 0 7.6 3
04:00 0 J/kg 4.9 K 0 % 0 % 0 % 0 m²/s² 0 0 9.61 3
05:00 0 J/kg 4.8 K 0 % 0 % 0 % 0 m²/s² 0 0 9.9 2
06:00 0 J/kg 4.7 K 0 % 0 % 0 % 0 m²/s² 0 0 8.96 2
07:00 10 J/kg 4.3 K 0 % 0 % 0 % 0 m²/s² 0 0 7.78 1
08:00 40 J/kg 3.5 K 0 % 0 % 0 % 0 m²/s² 0 0 6.71 2
09:00 66 J/kg 2.8 K 0 % 0 % 0 % 0 m²/s² 0 0 5.83 2
10:00 85 J/kg 2.3 K 0 % 0 % 0 % 0 m²/s² 0 0 5.33 2
11:00 106 J/kg 1.9 K 0 % 0 % 0 % 0 m²/s² 0 0 5.11 2
12:00 116 J/kg 1.7 K 0 % 0 % 0 % 0 m²/s² 0 0 4.91 3
13:00 119 J/kg 1.6 K 0 % 0 % 0 % 0 m²/s² 0 0 4.9 2
14:00 165 J/kg 1.3 K 0 % 0 % 0 % 0 m²/s² 0 0 4.33 2
15:00 176 J/kg 1.1 K 0 % 0 % 0 % 0 m²/s² 0 0 3.89 1
16:00 209 J/kg 0.7 K 0 % 0 % 0 % 0 m²/s² 0 0 3.13 3
17:00 244 J/kg 0.2 K 0 % 0 % 0 % 0 m²/s² 0 0 2.69 3
18:00 194 J/kg 0.6 K 0 % 0 % 0 % 0 m²/s² 0 0 3.48 3
19:00 191 J/kg 0.7 K 0 % 0 % 0 % 0 m²/s² 0 0 3.91 2
20:00 179 J/kg 0.8 K 0 % 0 % 0 % 0 m²/s² 0 0 4.46 3
21:00 103 J/kg 1.6 K 0 % 0 % 0 % 0 m²/s² 0 0 5.65 3
22:00 48 J/kg 2.2 K 0 % 0 % 0 % 0 m²/s² 0 0 6.49 3
23:00 3 J/kg 3.5 K 0 % 0 % 0 % 0 m²/s² 0 0 8 3
 04:58     21:56    Daglengte: 16:58 Dinsdag 18 Jun
00:00 0 J/kg 3.9 K 0 % 0 % 0 % 0 m²/s² 0 0 8.79 3
01:00 0 J/kg 3.8 K 0 % 0 % 0 % 0 m²/s² 0 0 8.69 3
02:00 0 J/kg 4.2 K 0 % 0 % 0 % 0 m²/s² 0 0 8.85 3
03:00 0 J/kg 5.2 K 0 % 0 % 0 % 0 m²/s² 0 0 10.21 3
04:00 0 J/kg 5.9 K 0 % 0 % 0 % 0 m²/s² 0 0 10.94 3
05:00 0 J/kg 6.2 K 0 % 0 % 0 % 0 m²/s² 0 0 11.24 3
06:00 0 J/kg 6.5 K 0 % 0 % 0 % 0 m²/s² 0 0 11.54 2
07:00 0 J/kg 6.6 K 0 % 0 % 0 % 0 m²/s² 0 0 11.64 3
08:00 0 J/kg 6.4 K 0 % 0 % 0 % 0 m²/s² 0 0 11.32 3
09:00 0 J/kg 6.7 K 0 % 0 % 0 % 0 m²/s² 0 0 11.38 3
10:00 0 J/kg 7.0 K 0 % 0 % 0 % 0 m²/s² 0 0 11.32 1
11:00 0 J/kg 7.0 K 0 % 0 % 0 % 0 m²/s² 0 0 11.14 2
12:00 0 J/kg 7.0 K 0 % 0 % 0 % 0 m²/s² 0 0 10.36 1
13:00 4 J/kg 6.7 K 0 % 0 % 0 % 0 m²/s² 0 0 8.83 0
14:00 11 J/kg 6.6 K 0 % 0 % 0 % 0 m²/s² 0 0 8.13 1
15:00 30 J/kg 6.0 K 0 % 0 % 0 % 0 m²/s² 0 0 7.32 2
16:00 35 J/kg 5.5 K 0 % 0 % 0 % 0 m²/s² 0 0 6.61 3
17:00 36 J/kg 5.0 K 0 % 0 % 0 % 0 m²/s² 0 0 5.78 3
18:00 50 J/kg 4.9 K 0 % 0 % 0 % 0 m²/s² 0 0 5.59 1
19:00 53 J/kg 4.9 K 0 % 0 % 0 % 0 m²/s² 0 0 5.5 3
20:00 61 J/kg 4.5 K 0 % 0 % 0 % 0 m²/s² 0 0 5.04 3
21:00 62 J/kg 4.5 K 0 % 0 % 0 % 0 m²/s² 0 0 5.1 3
22:00 53 J/kg 4.9 K 0 % 0 % 0 % 0 m²/s² 0 0 5.35 3
23:00 32 J/kg 5.3 K 0 % 0 % 0 % 0 m²/s² 0 0 5.72 3
 04:58     21:56    Daglengte: 16:58 Woensdag 19 Jun
00:00 37 J/kg 5.1 K 0 % 0 % 0 % 0 m²/s² 0 0 5.61 3
01:00 37 J/kg 5.0 K 0 % 0 % 0 % 0 m²/s² 0 0 5.36 3
02:00 36 J/kg 5.1 K 0 % 0 % 0 % 0 m²/s² 0 0 5.34 3
03:00 19 J/kg 5.3 K 0 % 0 % 0 % 0 m²/s² 0 0 5.54 3
04:00 0 J/kg 5.5 K 0 % 0 % 0 % 0 m²/s² 0 0 5.71 3
05:00 0 J/kg 5.4 K 0 % 0 % 0 % 0 m²/s² 0 0 5.61 3
06:00 0 J/kg 5.4 K 0 % 0 % 0 % 0 m²/s² 0 0 5.7 3
07:00 0 J/kg 5.4 K 0 % 0 % 0 % 0 m²/s² 0 0 6 3
08:00 0 J/kg 5.9 K 0 % 0 % 0 % 0 m²/s² 0 0 6.53 3
09:00 0 J/kg 6.0 K 0 % 0 % 0 % 0 m²/s² 0 0 7.26 3
10:00 54 J/kg 4.4 K 0 % 0 % 0 % 0 m²/s² 0 0 7.25 3
11:00 48 J/kg 4.2 K 0 % 0 % 0 % 0 m²/s² 0 0 8.31 2
12:00 24 J/kg 4.9 K 0 % 0 % 0 % 0 m²/s² 0 0 9.34 2
13:00 36 J/kg 5.3 K 0 % 0 % 0 % 0 m²/s² 0 0 10.46 0
14:00 71 J/kg 5.2 K 0 % 0 % 0 % 0 m²/s² 0 0 11.14 2
15:00 73 J/kg 5.4 K 0 % 0 % 0 % 0 m²/s² 0 0 10.98 2
16:00 82 J/kg 5.1 K 0 % 0 % 0 % 0 m²/s² 0 0 7.71 2
17:00 132 J/kg 4.2 K 0 % 0 % 0 % 0 m²/s² 0 0 5.64 2
18:00 110 J/kg 4.2 K 0 % 0 % 0 % 0 m²/s² 0 0 5.28 80
Temp Baro Wind Neerslag
  EWN Forecast EWN WRFDA DWD ICON FMI HIRLAM MET Norway GFS
 04:58     21:55    Daglengte: 16:57 Vandaag
19:00 14.4° 1006.5 hPa 5.0 m/s 0.0 mm 14.1° 1005.6 hPa 5.2 m/s 4.0 mm 16.1° 1007.0 hPa 5.4 m/s -0.0 mm 15.7° 1006.9 hPa 6.7 m/s 0.0 mm 14.0° 1005.8 hPa 3.9 m/s 3.1 mm 12.8° 1007.3 hPa 4.2 m/s
22:00 13.7° 1007.8 hPa 4.3 m/s 0.0 mm 13.7° 1006.8 hPa 3.1 m/s 15.1 mm 13.8° 1007.9 hPa 3.6 m/s 0.0 mm 15.7° 1007.8 hPa 6.9 m/s 0.0 mm 12.4° 1007.8 hPa 4.3 m/s 0.3 mm 11.9° 1008.4 hPa 4.6 m/s
 04:58     21:55    Daglengte: 16:57 Morgen
01:00 12.6° 1009.2 hPa 3.7 m/s 0.0 mm 13.0° 1007.9 hPa 4.2 m/s 33.6 mm 12.6° 1009.3 hPa 2.9 m/s 0.1 mm 13.8° 1009.5 hPa 5.1 m/s 0.0 mm 11.3° 1009.1 hPa 2.8 m/s 0.0 mm 10.4° 1009.4 hPa 3.3 m/s
04:00 11.5° 1009.6 hPa 3.7 m/s 0.0 mm 11.0° 1008.3 hPa 3.7 m/s 38.4 mm 11.4° 1009.7 hPa 2.6 m/s 0.0 mm 13.3° 1010.5 hPa 6.2 m/s 0.0 mm 10.5° 1009.3 hPa 3.1 m/s 0.0 mm 9.3° 1009.5 hPa 3.6 m/s
07:00 12.4° 1009.9 hPa 3.8 m/s 0.0 mm 12.6° 1008.4 hPa 4.8 m/s 38.4 mm 12.3° 1009.9 hPa 3.3 m/s 0.0 mm 13.3° 1011.0 hPa 4.0 m/s 0.0 mm 12.1° 1009.5 hPa 3.3 m/s 0.0 mm 10.8° 1009.8 hPa 4.6 m/s
10:00 15.4° 1010.5 hPa 5.7 m/s 0.0 mm 15.5° 1009.0 hPa 6.1 m/s 38.4 mm 15.4° 1010.7 hPa 5.7 m/s 0.0 mm 15.7° 1011.8 hPa 5.7 m/s 0.0 mm 15.4° 1009.5 hPa 5.8 m/s 0.0 mm 14.8° 1010.1 hPa 6.3 m/s
13:00 17.2° 1010.4 hPa 6.3 m/s 0.0 mm 17.9° 1008.7 hPa 6.9 m/s 38.4 mm 18.0° 1010.2 hPa 6.5 m/s 0.1 mm 16.9° 1011.8 hPa 4.8 m/s 0.0 mm 17.1° 1010.3 hPa 6.7 m/s 1.0 mm 17.1° 1010.4 hPa 7.0 m/s
16:00 18.2° 1010.6 hPa 5.8 m/s 0.0 mm 18.6° 1009.1 hPa 6.5 m/s 38.5 mm 18.8° 1010.7 hPa 5.8 m/s 0.1 mm 17.6° 1011.2 hPa 4.9 m/s 0.0 mm 18.2° 1010.3 hPa 6.2 m/s 0.0 mm 16.8° 1010.6 hPa 6.6 m/s
19:00 17.1° 1011.0 hPa 4.6 m/s 0.0 mm 17.9° 1009.5 hPa 5.5 m/s 39.1 mm 17.4° 1011.1 hPa 5.0 m/s 0.0 mm 17.4° 1011.6 hPa 4.8 m/s 0.0 mm 16.9° 1010.8 hPa 4.0 m/s 0.0 mm 15.5° 1011.1 hPa 4.7 m/s
22:00 14.6° 1012.0 hPa 2.3 m/s 0.0 mm 15.2° 1010.6 hPa 2.8 m/s 39.2 mm 14.8° 1012.0 hPa 2.4 m/s 0.0 mm 15.4° 1012.4 hPa 1.8 m/s 0.0 mm 13.7° 1011.8 hPa 2.1 m/s 0.0 mm 11.4° 1012.6 hPa 2.8 m/s
 04:58     21:56    Daglengte: 16:58 Dinsdag 18 Jun
01:00 12.6° 1012.5 hPa 2.9 m/s 0.0 mm 12.3° 1011.3 hPa 3.5 m/s 39.2 mm 12.5° 1012.9 hPa 2.3 m/s 0.0 mm 14.5° 1012.5 hPa 3.0 m/s 0.0 mm 11.7° 1012.4 hPa 2.7 m/s 0.0 mm 9.2° 1012.9 hPa 3.0 m/s
04:00 11.5° 1012.3 hPa 2.9 m/s 0.0 mm 11.4° 1011.2 hPa 3.6 m/s 39.2 mm 11.5° 1012.7 hPa 2.0 m/s 0.0 mm 13.6° 1012.4 hPa 3.0 m/s 0.0 mm 10.5° 1012.2 hPa 2.8 m/s 0.0 mm 8.3° 1012.6 hPa 2.9 m/s
07:00 12.0° 1012.7 hPa 3.3 m/s 0.0 mm 12.0° 1011.2 hPa 3.6 m/s 39.2 mm 11.6° 1013.1 hPa 3.4 m/s 0.0 mm 13.8° 1012.8 hPa 2.7 m/s 0.0 mm 11.8° 1012.7 hPa 3.0 m/s 0.0 mm 10.7° 1012.6 hPa 2.5 m/s
10:00 14.9° 1012.9 hPa 3.3 m/s 0.0 mm 15.1° 1011.4 hPa 3.5 m/s 39.2 mm 14.4° 1013.5 hPa 3.5 m/s 0.0 mm 15.7° 1012.9 hPa 3.5 m/s 0.0 mm 15.0° 1012.7 hPa 3.2 m/s 0.0 mm 14.8° 1012.8 hPa 3.1 m/s
13:00 16.9° 1012.3 hPa 2.2 m/s 0.0 mm 17.2° 1010.7 hPa 1.4 m/s 39.2 mm 17.5° 1012.8 hPa 2.8 m/s 0.0 mm 16.9° 1012.5 hPa 2.5 m/s 0.0 mm 16.9° 1012.1 hPa 0.7 m/s 0.0 mm 17.0° 1012.4 hPa 1.8 m/s
16:00 17.6° 1011.1 hPa 2.0 m/s 0.0 mm 18.1° 1009.5 hPa 2.1 m/s 39.2 mm 17.5° 1012.0 hPa 3.6 m/s 0.0 mm 17.3° 1011.2 hPa 1.9 m/s 0.5 mm 17.7° 1011.5 hPa 1.7 m/s
19:00 17.1° 1010.2 hPa 1.7 m/s 0.0 mm 18.1° 1008.6 hPa 0.5 m/s 39.2 mm 15.9° 1010.9 hPa 3.5 m/s 0.0 mm 17.1° 1010.3 hPa 1.6 m/s 0.0 mm 16.7° 1010.6 hPa 1.3 m/s
22:00 14.6° 1010.4 hPa 1.6 m/s 0.0 mm 17.1° 1008.7 hPa 0.9 m/s 39.2 mm 14.4° 1010.4 hPa 0.5 m/s 0.0 mm 14.0° 1010.5 hPa 2.0 m/s 0.0 mm 13.1° 1011.1 hPa 2.1 m/s
 04:58     21:56    Daglengte: 16:58 Woensdag 19 Jun
01:00 13.1° 1010.0 hPa 2.2 m/s 0.0 mm 14.7° 1007.8 hPa 1.4 m/s 39.3 mm 13.3° 1009.4 hPa 1.3 m/s 0.0 mm 12.0° 1010.3 hPa 2.3 m/s 0.0 mm 12.1° 1010.1 hPa 1.8 m/s
04:00 11.7° 1009.0 hPa 3.0 m/s 0.0 mm 12.8° 1007.0 hPa 2.3 m/s 40.3 mm 11.8° 1008.4 hPa 1.2 m/s 0.0 mm 10.8° 1009.3 hPa 3.1 m/s 0.0 mm 10.9° 1009.1 hPa 2.0 m/s
07:00 11.5° 1008.9 hPa 3.2 m/s 0.0 mm 11.7° 1006.3 hPa 3.0 m/s 42.6 mm 12.1° 1008.0 hPa 1.5 m/s 0.0 mm 11.4° 1009.2 hPa 3.2 m/s 0.0 mm 10.5° 1008.3 hPa 2.7 m/s
10:00 14.3° 1008.5 hPa 3.3 m/s 0.0 mm 14.9° 1006.6 hPa 2.8 m/s 44.0 mm 15.7° 1007.4 hPa 2.9 m/s 0.0 mm 14.1° 1008.8 hPa 3.2 m/s 10.5° 1008.2 hPa 2.9 m/s
13:00 17.1° 1007.9 hPa 3.5 m/s 5.0 mm 17.3° 1005.9 hPa 3.4 m/s 44.0 mm 18.4° 1006.9 hPa 4.0 m/s 0.2 mm 16.9° 1008.4 hPa 3.2 m/s 16.7° 1007.6 hPa 2.5 m/s
16:00 17.3° 1007.1 hPa 3.9 m/s 5.0 mm 18.3° 1005.2 hPa 3.6 m/s 44.0 mm 18.0° 1006.6 hPa 3.3 m/s 0.2 mm 16.5° 1007.9 hPa 4.2 m/s 16.5° 1007.0 hPa 3.6 m/s
19:00 16.2° 1006.8 hPa 5.0 m/s 15.7 mm 17.1° 1004.9 hPa 5.6 m/s 45.6 mm 16.1° 1006.6 hPa 3.4 m/s 0.8 mm 16.1° 1007.4 hPa 5.2 m/s 14.3° 1006.9 hPa 4.0 m/s
22:00 13.0° 1007.9 hPa 4.9 m/s 11.4 mm 13.2° 1007.9 hPa 5.1 m/s 10.9° 1008.0 hPa 3.5 m/s 11.4 mm
 04:58     21:56    Daglengte: 16:58 Donderdag 20 Jun
01:00 11.4° 1008.1 hPa 5.0 m/s 11.4 mm 11.7° 1008.1 hPa 5.0 m/s 8.7° 1007.9 hPa 4.4 m/s 11.4 mm
04:00 11.0° 1008.2 hPa 5.8 m/s 11.4 mm 11.3° 1008.2 hPa 6.0 m/s 7.3° 1008.0 hPa 3.7 m/s 11.4 mm
07:00 10.8° 1008.3 hPa 6.7 m/s 11.4 mm 10.9° 1008.3 hPa 6.9 m/s 9.2° 1008.1 hPa 4.4 m/s 11.4 mm
10:00 13.0° 1009.1 hPa 5.9 m/s 11.4 mm 12.9° 1009.1 hPa 6.0 m/s 13.1° 1008.5 hPa 5.0 m/s 11.4 mm
13:00 15.0° 1009.9 hPa 5.0 m/s 11.7 mm 15.0° 1010.0 hPa 5.0 m/s 15.2° 1008.6 hPa 5.3 m/s 11.7 mm
16:00 14.3° 1010.8 hPa 4.8 m/s 14.2 mm 14.2° 1011.0 hPa 4.7 m/s 14.8° 1008.8 hPa 5.8 m/s 14.2 mm
19:00 13.5° 1011.7 hPa 4.4 m/s 15.4 mm 13.5° 1011.9 hPa 4.4 m/s 13.9° 1009.5 hPa 4.9 m/s 15.4 mm
22:00 11.3° 1013.4 hPa 3.9 m/s 15.6 mm 11.3° 1013.6 hPa 3.9 m/s 10.2° 1011.0 hPa 3.5 m/s 15.6 mm
 04:58     21:57    Daglengte: 16:59 Vrijdag 21 Jun
01:00 9.1° 1015.1 hPa 3.4 m/s 15.6 mm 9.2° 1015.4 hPa 3.4 m/s 7.9° 1012.1 hPa 3.4 m/s 15.6 mm
04:00 9.0° 1016.2 hPa 3.7 m/s 15.6 mm 9.2° 1016.5 hPa 3.8 m/s 6.9° 1013.1 hPa 3.6 m/s 15.6 mm
07:00 9.1° 1017.3 hPa 4.1 m/s 15.6 mm 9.2° 1017.6 hPa 4.1 m/s 7.7° 1014.2 hPa 3.6 m/s 15.6 mm
10:00 12.2° 1018.4 hPa 4.1 m/s 15.7 mm 12.2° 1018.6 hPa 4.2 m/s 12.4° 1015.6 hPa 3.1 m/s 15.7 mm
13:00 15.0° 1019.3 hPa 4.0 m/s 16.4 mm 15.2° 1019.6 hPa 4.2 m/s 13.1° 1016.5 hPa 1.6 m/s 16.4 mm
16:00 15.3° 1020.0 hPa 3.1 m/s 17.4 mm 15.3° 1020.2 hPa 3.2 m/s 14.3° 1017.1 hPa 1.4 m/s 17.4 mm
19:00 15.4° 1020.6 hPa 2.2 m/s 17.8 mm 15.5° 1020.9 hPa 2.3 m/s 14.8° 1017.3 hPa 0.6 m/s 17.8 mm
22:00 12.9° 1021.7 hPa 1.7 m/s 17.9 mm 13.1° 1022.0 hPa 1.8 m/s 10.8° 1018.7 hPa 1.2 m/s 17.9 mm
 04:59     21:57    Daglengte: 16:58 Zaterdag 22 Jun
01:00 10.7° 1022.7 hPa 1.2 m/s 18.0 mm 10.7° 1023.1 hPa 1.2 m/s 10.6° 1018.8 hPa 1.3 m/s 18.0 mm
04:00 11.3° 1022.8 hPa 0.6 m/s 18.0 mm 11.4° 1023.2 hPa 0.7 m/s 10.3° 1018.3 hPa 0.4 m/s 18.0 mm
07:00 12.0° 1023.0 hPa 0.2 m/s 18.0 mm 12.1° 1023.4 hPa 0.1 m/s 10.9° 1018.2 hPa 1.5 m/s 18.0 mm
10:00 14.0° 1023.2 hPa 2.4 m/s 18.1 mm 14.1° 1023.7 hPa 2.3 m/s 12.1° 1017.9 hPa 3.6 m/s 18.2 mm
13:00 15.9° 1023.5 hPa 4.4 m/s 18.3 mm 16.2° 1024.0 hPa 4.4 m/s 13.1° 1017.7 hPa 5.0 m/s 18.3 mm
16:00 15.6° 1023.2 hPa 4.4 m/s 18.4 mm 15.6° 1023.8 hPa 4.3 m/s 15.6° 1017.2 hPa 5.5 m/s 18.4 mm
19:00 14.9° 1023.0 hPa 4.2 m/s 18.8 mm 14.9° 1023.6 hPa 4.3 m/s 15.3° 1017.0 hPa 2.8 m/s 18.8 mm
22:00 13.1° 1023.3 hPa 2.9 m/s 18.9 mm 13.2° 1023.8 hPa 3.0 m/s 11.9° 1017.4 hPa 2.6 m/s 18.9 mm
 04:59     21:57    Daglengte: 16:58 Zondag 23 Jun
01:00 11.5° 1023.5 hPa 1.7 m/s 18.9 mm 11.5° 1024.1 hPa 1.6 m/s 11.1° 1016.8 hPa 2.5 m/s 18.9 mm
04:00 12.3° 1023.1 hPa 1.7 m/s 18.9 mm 12.4° 1023.8 hPa 1.6 m/s 11.7° 1015.8 hPa 2.0 m/s 18.9 mm
07:00 13.2° 1022.7 hPa 1.7 m/s 18.9 mm 13.3° 1023.4 hPa 1.7 m/s 12.3° 1015.1 hPa 2.0 m/s 18.9 mm
10:00 15.0° 1022.9 hPa 2.6 m/s 18.9 mm 15.0° 1023.6 hPa 2.6 m/s 15.2° 1014.1 hPa 2.8 m/s 18.9 mm
13:00 16.6° 1022.9 hPa 3.7 m/s 19.0 mm 16.6° 1023.9 hPa 3.5 m/s 16.4° 1012.5 hPa 5.5 m/s 19.0 mm
16:00 16.1° 1022.8 hPa 3.5 m/s 19.1 mm 16.1° 1023.9 hPa 3.3 m/s 16.2° 1010.7 hPa 5.4 m/s 19.1 mm
19:00 15.4° 1022.7 hPa 3.2 m/s 19.2 mm 15.5° 1023.9 hPa 3.1 m/s 14.5° 1009.1 hPa 3.9 m/s 19.2 mm
 04:59     21:57    Daglengte: 16:58 Maandag 24 Jun
01:00 11.4° 1023.4 hPa 2.4 m/s 23.7 mm 11.3° 1025.1 hPa 2.2 m/s 12.7° 1004.8 hPa 5.2 m/s 23.7 mm
07:00 13.3° 1023.6 hPa 2.9 m/s 27.1 mm 13.3° 1025.7 hPa 2.6 m/s 13.3° 1000.1 hPa 5.8 m/s 27.1 mm
13:00 16.0° 1024.9 hPa 4.6 m/s 28.3 mm 15.9° 1027.3 hPa 4.5 m/s 17.7° 998.5 hPa 5.1 m/s 28.3 mm
19:00 15.8° 1025.5 hPa 3.6 m/s 28.8 mm 15.8° 1028.1 hPa 3.5 m/s 15.7° 997.0 hPa 4.1 m/s 28.8 mm
 05:00     21:57    Daglengte: 16:57 Dinsdag 25 Jun
01:00 11.2° 1027.2 hPa 2.0 m/s 29.8 mm 11.0° 1029.8 hPa 2.1 m/s 12.9° 998.4 hPa 1.0 m/s 29.8 mm
07:00 12.7° 1027.9 hPa 1.5 m/s 30.0 mm 12.6° 1030.4 hPa 1.4 m/s 13.5° 1000.1 hPa 2.5 m/s 30.0 mm
13:00 18.5° 1028.8 hPa 3.3 m/s 31.8 mm 18.9° 1031.0 hPa 3.1 m/s 14.1° 1004.8 hPa 5.5 m/s 31.8 mm
19:00 17.3° 1028.3 hPa 2.5 m/s 32.5 mm 17.6° 1030.0 hPa 2.1 m/s 13.9° 1009.7 hPa 6.7 m/s 32.5 mm
 05:00     21:57    Daglengte: 16:57 Woensdag 26 Jun
01:00 12.4° 1029.3 hPa 2.2 m/s 32.6 mm 12.4° 1030.5 hPa 1.8 m/s 12.0° 1015.6 hPa 7.1 m/s 32.6 mm
07:00 10.1° 1019.6 hPa 6.2 m/s 32.6 mm 10.1° 1019.6 hPa 6.2 m/s 32.6 mm
13:00 14.9° 1025.1 hPa 3.2 m/s 0.1 mm
19:00 15.2° 1024.0 hPa 1.8 m/s 0.3 mm
 05:01     21:57    Daglengte: 16:56 Donderdag 27 Jun
01:00 11.4° 1023.6 hPa 1.7 m/s 0.2 mm
07:00 11.2° 1021.7 hPa 1.9 m/s 0.5 mm
13:00 14.7° 1020.3 hPa 1.7 m/s 1.2 mm
19:00 15.2° 1018.2 hPa 1.9 m/s 1.2 mm
 05:01     21:57    Daglengte: 16:56 Vrijdag 28 Jun
01:00 12.0° 1017.9 hPa 2.4 m/s 0.8 mm
07:00 12.1° 1016.9 hPa 2.4 m/s 0.7 mm
13:00 15.8° 1016.6 hPa 2.3 m/s 0.4 mm
19:00 16.0° 1015.5 hPa 2.3 m/s 0.8 mm
 05:02     21:56    Daglengte: 16:54 Zaterdag 29 Jun
01:00 12.3° 1015.6 hPa 2.3 m/s 0.7 mm
07:00 12.0° 1014.9 hPa 2.3 m/s 0.4 mm
13:00 15.8° 1014.4 hPa 1.9 m/s 0.4 mm
19:00 15.8° 1013.3 hPa 1.6 m/s 1.3 mm
 05:03     21:56    Daglengte: 16:53 Zondag 30 Jun
01:00 12.0° 1012.8 hPa 2.1 m/s 0.6 mm
07:00 11.8° 1011.7 hPa 2.0 m/s 0.6 mm
13:00 15.0° 1012.0 hPa 2.3 m/s 0.7 mm
19:00 15.1° 1011.9 hPa 1.9 m/s 1.5 mm
 05:03     21:56    Daglengte: 16:53 Maandag 01 Jul
01:00 11.3° 1012.9 hPa 2.6 m/s 0.5 mm
07:00 10.8° 1012.9 hPa 2.8 m/s 0.4 mm
13:00 15.1° 1013.4 hPa 2.6 m/s 0.6 mm
FMI Hirlam - 7.5 km EWN WRFDA - 12 km DWD ICON - 7 km GFS - 25 km Basiskaart






























































Updatetijd (Europe/Amsterdam) Resolutie Lengte Stap
FMI Hirlam 19:00, 01:00, 07:00, 13:00 7.5 km 49h 1h
EWN WRFDA 16:15, 22:15, 04:15, 10:15 12 km 73h 1h
DWD ICON 18:00, 00:00, 06:00, 12:00 7 km 75h 1h
GFS 14:30, 20:30, 02:30, 08:30 25 km 237h 3h
30+ mm
25-30 mm
20-25 mm
15-20 mm
10-15 mm
6-10 mm
4-6 mm
2-4 mm
1-2 mm
0.5-1 mm
0.2-0.5 mm
0.1-0.2 mm
30+ mm
25-30 mm
20-25 mm
15-20 mm
10-15 mm
6-10 mm
4-6 mm
2-4 mm
1-2 mm
0.5-1 mm
0.2-0.5 mm
0.1-0.2 mm
Sneeuwval
Natte sneeuw
Hagel
Vorst
30+ mm
25-30 mm
20-25 mm
15-20 mm
10-15 mm
6-10 mm
4-6 mm
2-4 mm
1-2 mm
0.5-1 mm
0.2-0.5 mm
0.1-0.2 mm
Sneeuwval
Natte sneeuw
Hagel
Vorst
Onweer
50 mm
40 mm
30 mm
26 mm
22 mm
18 mm
14 mm
10 mm
9 mm
8 mm
7 mm
6 mm
5 mm
4.5 mm
4 mm
3.5 mm
3 mm
2.5 mm
2 mm
1.5 mm
1 mm
0.8 mm
0.6 mm
0.4 mm
0.2 mm
0.05 mm
35°
30°
25°
20°
15°
10°
-5°
-10°
-15°
-20°
-25°
-30°
-35°
33> m/s
29 m/s
25 m/s
21 m/s
17 m/s
14 m/s
11 m/s
8 m/s
5 m/s
3 m/s
0 m/s
2600 J/kg
2400 J/kg
2200 J/kg
2000 J/kg
1800 J/kg
1600 J/kg
1400 J/kg
1200 J/kg
1000 J/kg
800 J/kg
600 J/kg
400 J/kg
200 J/kg
70 dBZ
65 dBZ
60 dBZ
55 dBZ
50 dBZ
45 dBZ
40 dBZ
35 dBZ
30 dBZ
25 dBZ
20 dBZ
15 dBZ
10 dBZ
5 dBZ
-1 K
-2 K
-3 K
-4 K
-5 K
-6 K
-7 K
-8 K
-9 K
950 m²/s²
900 m²/s²
850 m²/s²
800 m²/s²
750 m²/s²
700 m²/s²
650 m²/s²
600 m²/s²
550 m²/s²
500 m²/s²
450 m²/s²
400 m²/s²
350 m²/s²
300 m²/s²
250 m²/s²
200 m²/s²
150 m²/s²
100 m²/s²
46 m/s
44 m/s
42 m/s
40 m/s
38 m/s
36 m/s
34 m/s
32 m/s
30 m/s
28 m/s
26 m/s
24 m/s
22 m/s
20 m/s
16 m/s
12 m/s
8 m/s
4 m/s
30 m/s
28 m/s
26 m/s
24 m/s
22 m/s
20 m/s
18 m/s
16 m/s
14 m/s
12 m/s
10 m/s
8 m/s
6 m/s
4 m/s
2 m/s
3.0
2.8
2.6
2.4
2.2
2.0
1.8
1.6
1.4
1.2
1.0
0.8
0.6
0.4
0.2
15
14
13
12
11
10
9
8
7
6
5
4
3
2
1
90%
80%
70%
60%
50%
40%
30%
20%
10%
42
40
38
36
34
32
30